GFSMA_925_temp_063.txt.gz
Temp
17 17 16 16 16 17 16 17 18 18 18 18 18 18 18 19 18 16 14 13 13 13 12 12 12 11 10 10 10 10 10 9 9 9 9 8 8 8 8 8 8 7 7
17 17 16 17 17 18 18 18 19 18 18 18 18 18 18 18 18 17 15 13 13 13 13 12 12 12 11 10 10 10 10 10 9 9 8 8 8 8 8 7 7 7 7
16 18 18 18 18 19 19 19 18 18 19 18 18 17 18 17 18 18 16 15 13 13 13 12 12 12 11 11 10 10 10 10 9 9 8 8 8 8 8 7 7 7 7
16 17 18 18 19 19 19 19 19 19 19 19 18 18 18 17 17 17 18 16 15 14 13 12 12 12 11 11 11 10 10 10 9 9 8 8 8 8 8 8 8 8 9
15 17 18 18 18 18 19 19 19 19 19 19 19 18 18 18 17 17 17 17 16 16 15 13 13 12 12 11 11 11 10 10 10 9 9 8 8 8 8 8 8 9 9
15 16 16 17 17 17 18 18 19 19 19 19 19 19 18 18 17 17 16 16 16 16 16 15 13 12 12 12 11 11 11 11 10 10 9 9 8 8 8 8 9 9 9
15 16 16 16 16 17 17 18 18 18 18 18 19 19 18 17 17 17 16 16 16 15 15 16 15 13 13 13 12 11 12 12 11 10 10 9 9 8 8 8 8 8 8
16 17 17 16 16 17 17 17 17 17 18 18 19 18 18 17 17 16 17 16 16 16 16 15 15 15 15 13 12 12 12 12 12 11 10 10 9 9 8 8 7 7 7
17 16 16 16 16 17 17 17 16 17 18 17 17 19 19 20 19 17 16 16 16 16 16 16 15 14 14 15 14 13 12 12 12 12 12 11 10 9 9 9 8 8 7
15 15 16 16 16 16 16 16 16 16 17 17 16 16 17 17 18 17 18 16 16 15 14 15 15 14 14 14 15 14 13 13 12 12 11 11 11 10 10 9 9 9 8
15 15 15 15 15 16 16 16 16 15 16 16 16 16 16 16 16 17 17 17 15 14 14 13 14 14 14 14 14 14 13 13 12 12 12 11 10 10 10 10 10 9 9
14 14 14 15 16 15 15 15 15 14 14 15 16 16 16 17 17 17 17 17 15 13 13 13 13 13 14 15 14 14 13 12 12 12 11 11 10 10 9 8 8 8 9
15 14 14 14 14 15 15 15 15 15 15 15 15 15 16 16 17 17 17 16 15 13 12 12 12 13 13 15 14 13 13 12 12 11 10 10 10 9 9 9 8 7 7
14 14 14 14 14 15 15 14 15 15 16 16 15 15 15 16 16 16 16 15 14 12 12 12 12 13 13 14 13 13 12 11 11 10 10 10 9 9 8 8 8 8 7
15 15 15 14 15 15 15 15 15 16 16 16 16 15 15 15 15 16 15 15 14 14 15 13 12 12 12 13 13 12 11 10 10 10 9 9 8 8 8 7 7 7 7
15 15 15 14 14 15 15 16 16 16 16 16 15 15 15 15 15 15 15 14 13 13 13 13 12 12 13 12 11 11 10 9 9 9 8 8 8 7 6 6 6 6 6
15 15 14 14 14 14 15 16 16 16 16 16 16 16 15 15 15 15 14 13 12 11 11 12 12 11 10 10 10 10 8 8 8 8 8 7 7 6 6 5 5 5 5
15 16 16 15 15 15 15 15 15 16 16 16 16 16 16 16 15 14 13 12 11 11 10 10 10 9 9 10 9 8 7 7 7 8 7 7 6 5 5 5 6 6 5
16 16 17 17 17 17 16 16 16 16 16 16 17 17 17 16 15 13 12 11 11 10 10 9 9 8 7 7 7 6 6 6 6 7 6 5 5 5 5 5 5 5 5
17 17 16 17 17 17 16 16 16 16 16 16 16 16 16 16 14 12 11 10 11 9 9 8 8 6 5 4 4 4 4 5 6 7 7 6 5 4 3 3 3 3 3
17 16 16 16 16 16 16 16 16 16 16 16 16 16 15 14 13 12 12 11 10 9 8 7 7 4 4 3 3 3 4 5 6 7 6 5 5 4 4 4 3 3 3
16 16 16 16 16 16 16 16 16 16 16 16 15 14 13 12 12 12 12 11 10 9 7 6 5 5 4 3 2 3 3 3 4 5 5 5 4 4 3 3 4 3 2
16 16 16 16 16 16 16 15 15 14 15 15 15 14 13 12 11 11 10 10 10 8 6 5 5 3 1 2 2 1 2 3 4 5 4 4 3 3 3 4 4 2 2
17 16 16 16 16 16 16 15 15 14 14 14 14 14 13 11 11 10 8 6 5 4 4 3 2 1 1 0 -0 -1 0 3 3 3 2 1 2 2 3 2 2 1 1
17 17 16 16 16 16 16 15 15 14 12 11 11 11 10 10 7 6 5 1 -0 -1 -1 0 0 0 -1 -1 -2 -1 0 1 1 2 2 2 2 1 1 0 0 0 -0
17 17 16 11 12 12 12 13 12 11 9 6 5 4 4 4 2 1 2 0 -2 -3 -2 -2 -3 -4 -4 -2 -1 -1 -1 -0 -0 -0 0 -0 0 -0 -0 0 0 -0 -1

GFSMA_925_temp_069.txt.gz
Temp
14 14 14 15 15 16 16 16 16 17 18 17 18 16 16 16 15 14 13 13 13 13 12 12 11 11 11 10 10 10 10 10 9 9 9 9 9 9 9 9 8 8 8
14 15 15 15 14 16 16 16 17 17 17 17 18 17 17 16 15 14 13 13 13 13 12 12 12 11 11 10 10 10 10 10 9 9 9 10 9 9 9 9 9 9 8
15 15 15 15 16 16 17 16 16 17 17 17 18 16 16 16 15 14 13 13 13 13 12 12 12 11 11 10 10 10 10 10 9 9 9 9 9 9 9 9 10 9 8
15 15 15 15 16 16 17 17 16 17 17 17 17 17 16 16 16 15 14 13 13 13 12 12 12 12 11 11 10 10 10 10 9 9 9 9 9 9 9 9 9 8 8
16 16 16 16 16 17 16 17 17 18 18 17 17 17 17 16 15 15 15 14 13 13 13 12 12 12 12 11 11 11 11 10 10 10 9 9 8 8 9 10 9 9 9
16 16 16 17 16 17 17 17 18 18 18 18 17 17 17 17 16 16 15 15 14 14 13 13 12 12 12 12 12 11 11 11 11 10 10 9 9 8 8 9 9 9 9
15 16 16 17 16 17 16 17 18 18 18 18 17 17 17 17 17 16 16 15 15 15 14 14 13 13 12 12 12 12 12 12 11 11 11 10 9 9 8 8 8 9 9
15 16 16 16 16 17 17 16 18 18 18 18 17 16 14 15 17 17 17 15 15 15 14 14 14 14 14 13 13 12 12 12 12 12 11 11 11 10 9 8 8 8 8
14 15 16 15 16 16 15 15 18 18 18 18 18 17 13 14 14 17 17 17 16 16 15 15 15 14 14 14 14 14 14 13 12 12 12 11 11 11 10 9 9 8 8
14 16 16 15 15 17 17 18 18 18 18 18 18 18 18 17 12 12 16 16 16 16 16 16 15 15 15 14 14 14 14 14 14 13 12 12 11 11 11 11 10 9 9
14 15 16 16 17 17 17 17 17 17 18 17 18 18 17 16 16 13 12 14 16 16 16 16 16 15 15 15 15 14 15 15 14 14 13 13 12 11 11 10 10 10 10
14 15 16 16 16 17 17 17 17 17 17 17 17 17 17 16 15 14 12 13 14 16 16 16 16 16 16 15 15 15 15 15 14 14 13 13 13 12 12 11 11 10 10
14 14 15 16 16 16 17 16 16 16 17 17 16 16 16 17 17 16 15 14 13 15 16 16 16 16 16 15 15 15 14 14 14 14 14 13 13 13 12 11 11 10 10
13 14 15 16 16 16 16 16 16 16 16 16 16 14 14 15 16 16 16 15 11 12 13 15 16 16 16 15 16 15 15 14 14 14 14 14 14 13 13 12 11 11 10
13 14 14 15 15 15 15 15 15 16 15 15 15 15 14 13 14 15 16 16 14 12 13 14 14 15 15 15 15 16 15 15 15 13 14 14 14 13 13 12 11 11 10
13 13 14 14 14 14 14 15 15 15 15 15 15 14 14 14 14 15 16 16 15 14 13 15 14 15 15 15 15 15 15 15 15 14 14 13 13 12 12 12 11 10 9
13 14 14 13 13 14 14 14 14 14 13 14 14 13 14 14 14 14 15 15 14 14 13 15 14 15 15 15 14 14 14 14 13 13 13 12 11 11 10 9 8 7 7
13 13 13 13 14 13 13 13 14 14 13 13 13 13 13 14 13 14 13 13 13 13 13 13 14 13 13 14 14 14 13 13 12 12 12 11 10 9 9 7 5 5 5
13 13 13 13 13 13 13 13 14 14 14 14 14 13 14 13 13 13 13 13 13 13 13 12 13 13 13 12 12 12 12 12 11 11 10 9 8 7 7 5 5 4 3
13 13 13 13 13 13 13 13 13 13 13 13 13 13 13 13 14 14 13 13 13 13 13 12 13 13 12 11 11 9 8 9 9 7 7 7 7 6 5 4 3 3 3
13 13 12 12 13 13 14 14 13 13 13 13 13 13 14 14 14 14 14 14 13 13 13 13 13 12 11 7 9 9 8 8 6 6 5 5 5 4 3 1 1 1 1
13 13 13 13 13 13 14 14 14 13 13 13 13 13 13 14 14 15 15 15 15 13 13 13 13 12 11 9 9 8 7 4 3 4 4 3 3 1 1 1 0 -0 -1
14 14 14 14 14 14 14 14 14 14 14 14 14 14 13 14 14 14 15 15 14 13 12 11 11 11 10 10 8 5 4 3 1 1 2 1 1 1 0 -1 -1 -1 1
14 14 14 15 15 15 15 15 15 15 14 14 14 14 14 14 14 14 14 12 9 8 7 7 7 6 5 5 5 4 3 2 -0 -1 0 -2 -1 -1 -1 -1 -1 0 -0
16 15 15 15 15 15 15 15 15 15 14 14 13 12 12 13 13 13 12 8 4 0 -0 1 1 1 1 2 2 2 -1 -1 -2 -2 -2 -2 -2 -1 -0 -0 -1 0 1
16 15 14 12 12 12 9 11 12 13 11 9 7 6 6 7 7 8 9 4 -1 -3 -2 -2 -2 -1 -1 -1 -1 -1 -2 -2 -3 -3 -3 -2 -1 -1 -1 -1 -0 -1 -1

GFSMA_925_temp_072.txt.gz
Temp
15 14 14 15 15 16 16 16 17 17 17 15 16 16 15 15 14 13 13 13 13 12 12 12 12 11 11 10 10 10 10 10 9 9 9 9 9 8 8 8 8 8 8
14 14 14 14 15 16 16 17 17 17 17 16 16 16 15 15 14 13 13 13 13 12 12 12 12 11 11 10 10 10 10 10 9 9 9 9 9 9 10 10 9 8 9
14 13 14 14 15 16 16 16 17 17 17 16 16 16 15 15 14 13 13 13 13 12 12 12 12 11 11 11 10 10 10 10 9 9 9 10 10 11 11 11 10 9 9
14 14 14 15 15 16 16 16 16 17 17 16 16 15 15 14 14 14 13 13 13 12 12 12 11 11 11 11 10 10 10 10 10 9 10 11 10 11 10 10 10 10 10
15 15 15 15 16 16 16 16 16 17 17 16 16 15 15 15 14 14 13 13 13 13 12 12 12 12 11 11 11 11 10 10 10 10 9 9 10 10 10 10 10 10 9
15 15 15 16 16 16 16 16 17 16 17 17 16 15 15 15 14 14 14 14 13 13 13 13 12 12 12 12 11 11 11 11 10 10 10 9 9 10 10 10 10 10 10
14 15 15 15 16 16 16 16 16 16 17 17 17 14 15 15 15 15 15 14 14 13 13 13 13 13 12 12 12 11 12 12 11 11 10 10 9 9 10 9 10 9 9
14 15 15 15 16 16 16 16 16 15 16 17 16 15 12 13 13 14 14 14 15 14 14 14 13 13 13 13 12 12 12 12 12 12 11 11 10 10 9 9 9 9 8
14 14 15 15 16 16 16 16 16 16 16 16 17 16 12 13 14 14 14 14 15 14 15 14 14 14 14 14 13 13 13 12 12 12 12 12 11 11 11 11 10 9 8
14 14 15 14 15 16 16 16 16 17 17 15 16 17 17 17 13 13 15 15 15 15 15 15 15 15 14 14 14 14 14 14 13 13 13 12 11 11 11 11 11 10 9
13 13 14 15 15 16 16 16 16 16 17 17 17 16 17 16 17 12 11 13 14 15 15 15 16 15 15 15 15 15 15 14 14 14 13 13 12 12 11 11 11 10 10
13 13 14 14 14 15 15 14 14 15 16 18 18 17 17 15 14 13 11 11 13 16 16 16 15 15 16 16 16 16 15 15 15 14 14 14 13 13 12 12 11 11 11
12 13 14 14 14 14 14 14 14 14 17 18 18 18 17 17 16 16 15 13 12 16 16 16 16 16 16 16 16 16 15 15 15 15 14 14 14 14 13 13 12 12 11
13 13 14 14 13 14 15 16 15 15 17 17 17 17 17 16 16 14 14 14 11 12 14 16 17 17 16 16 16 16 16 16 15 15 15 14 14 13 14 13 13 12 11
13 13 14 15 15 15 16 16 16 16 16 16 16 16 16 17 17 16 13 12 13 13 12 15 15 16 16 16 17 16 16 16 16 16 16 15 15 14 13 14 13 12 12
13 13 14 14 14 15 15 16 16 16 16 16 16 16 16 16 17 16 14 14 12 12 13 15 15 15 16 16 16 17 16 16 16 16 16 16 15 15 13 13 13 12 11
13 13 13 14 14 14 15 15 15 15 15 15 15 14 15 15 14 13 13 12 13 12 12 14 14 15 15 15 15 15 15 15 15 15 15 15 15 14 13 13 12 10 10
13 13 13 13 13 14 13 13 13 14 13 13 13 13 14 14 14 13 13 12 12 13 12 13 14 13 14 14 14 14 14 14 14 14 14 14 13 13 12 11 11 9 9
12 12 13 13 13 13 13 13 13 13 13 13 13 13 13 13 13 13 12 12 12 12 12 12 13 13 13 13 13 13 12 12 12 13 13 13 12 12 11 9 8 7 6
13 12 13 12 13 13 13 13 12 12 13 13 13 13 13 12 12 12 12 12 12 12 12 12 12 12 12 12 12 12 11 11 12 12 11 12 10 10 8 7 6 5 4
13 13 13 12 12 12 12 13 13 13 12 12 12 12 12 12 13 13 12 12 12 12 12 12 12 12 12 12 10 12 10 11 11 9 8 8 7 7 5 5 4 3 2
13 13 13 13 12 12 13 13 13 12 12 12 12 12 12 12 13 13 13 13 13 12 12 12 13 13 13 13 13 10 11 8 6 6 6 5 4 4 3 3 2 1 1
12 12 13 13 13 12 12 12 12 13 13 13 13 13 13 12 12 12 13 13 13 13 13 13 13 13 13 13 13 10 9 7 6 4 4 1 1 1 1 0 0 0 -0
12 12 13 13 13 13 13 13 13 13 12 13 13 13 12 12 12 12 12 11 12 11 11 10 9 8 9 8 9 8 6 3 1 0 1 -1 -1 -1 -0 -0 -0 -1 -1
12 12 13 13 13 13 12 13 13 13 12 12 13 13 13 13 12 12 12 11 7 3 1 0 -0 -0 2 3 3 4 2 1 -1 -2 -2 -2 -2 -2 -2 -1 -1 -2 -2
8 11 6 4 3 5 5 8 11 10 11 11 9 7 7 7 8 10 10 7 -1 -3 -3 -2 -1 -1 -1 -1 0 -0 -1 -1 -3 -3 -4 -3 -4 -3 -3 -3 -3 -3 -3

GFSMA_925_temp_075.txt.gz
Temp
15 15 15 15 16 16 15 15 16 15 15 15 15 15 14 14 13 13 13 13 13 13 13 12 12 11 11 11 10 10 10 10 10 9 9 9 9 9 9 8 8 8 8
14 15 14 15 15 16 15 16 15 15 15 16 15 15 15 14 13 13 13 13 13 13 13 12 12 11 11 11 10 10 10 10 10 9 9 9 9 9 8 8 8 8 8
15 14 14 14 15 16 15 15 15 16 16 16 15 15 15 14 13 13 13 13 13 12 12 12 12 12 11 11 10 10 10 10 10 9 9 9 9 10 11 11 10 10 10
15 14 13 14 15 15 15 15 15 15 15 15 14 14 14 14 13 13 13 13 12 12 12 12 12 11 11 11 10 10 10 10 10 9 9 11 10 11 11 11 11 11 11
14 13 13 14 15 15 15 15 15 16 15 15 14 14 14 14 14 13 13 13 12 12 12 12 12 11 11 11 11 11 10 10 10 10 10 11 11 12 11 11 11 11 11
14 13 14 14 15 14 15 15 16 16 16 16 14 14 14 14 13 13 13 13 13 12 12 12 12 12 11 11 11 11 11 11 10 10 10 9 9 11 11 11 11 11 10
13 14 14 14 15 15 15 15 16 16 15 15 14 12 12 13 13 13 13 13 13 13 12 12 12 12 12 12 12 11 11 12 11 11 11 10 9 9 10 10 10 10 10
14 14 14 14 14 14 15 15 16 15 15 15 14 13 11 12 12 12 13 13 13 13 13 13 13 13 12 12 12 12 12 12 12 12 11 11 11 10 10 9 9 10 9
14 13 14 14 14 14 15 15 16 16 15 15 15 15 12 12 12 12 12 13 13 13 14 13 13 13 13 13 13 13 13 12 12 12 12 12 12 12 11 11 11 10 9
13 13 13 14 15 15 15 16 16 16 16 15 15 16 17 16 12 11 12 13 14 14 15 14 14 14 14 14 14 14 14 14 13 13 13 13 12 11 12 12 11 11 11
13 13 13 14 14 15 15 15 15 16 16 15 15 16 16 15 16 13 11 13 13 14 14 14 14 15 15 15 15 15 15 15 14 14 14 13 13 13 12 11 11 11 11
12 13 13 14 14 14 14 15 15 15 15 16 16 16 16 15 14 14 11 12 14 15 15 15 15 15 15 15 15 15 15 15 15 15 14 14 14 14 13 12 12 11 11
13 13 13 13 13 13 14 14 14 15 14 14 14 15 16 17 17 17 15 12 12 15 15 15 15 16 16 16 16 16 16 16 16 16 16 15 15 14 14 14 13 13 12
12 13 13 13 13 13 14 14 14 14 14 13 13 13 14 16 17 17 16 14 11 11 14 15 16 16 16 16 16 17 16 16 16 16 16 16 16 15 15 14 14 14 13
12 12 13 13 13 13 13 13 13 13 13 13 14 14 14 15 16 16 16 16 14 11 12 14 15 16 16 16 17 16 16 16 17 16 16 16 15 15 15 14 14 14 13
12 12 13 13 13 13 13 13 12 13 13 13 13 13 13 15 16 15 15 15 15 13 12 14 14 14 15 15 16 16 16 17 17 17 16 16 16 16 15 15 14 14 14
12 12 13 13 13 13 13 13 13 12 12 12 13 13 15 16 15 15 15 14 14 14 12 13 13 14 14 14 15 15 15 16 16 16 16 16 16 15 15 15 14 14 13
12 12 13 13 13 13 13 13 13 13 13 13 14 14 15 15 14 15 14 14 13 13 12 12 13 13 13 14 14 14 15 15 15 15 15 15 15 14 14 14 14 13 12
13 13 12 12 13 13 13 13 13 13 13 13 13 13 14 13 13 13 12 12 12 12 12 12 12 13 13 12 12 12 13 12 12 13 13 14 14 14 14 13 13 12 11
13 12 12 12 12 12 12 12 12 13 13 13 13 13 13 13 13 13 12 12 12 12 12 11 12 12 12 12 12 11 11 12 11 11 12 12 12 12 11 11 10 10 9
12 13 13 13 12 12 12 12 12 12 12 12 12 12 12 12 13 13 13 13 12 11 11 11 11 12 12 12 12 12 12 11 11 11 10 9 10 10 10 9 9 7 6
12 12 12 12 12 12 12 12 13 12 12 12 12 12 12 12 12 12 12 13 12 12 10 11 12 12 12 12 12 12 10 11 11 12 10 9 8 7 7 6 6 5 4
12 12 12 12 12 12 12 13 13 12 12 12 12 12 12 12 12 11 12 12 12 12 12 12 12 12 12 12 12 12 12 11 11 9 7 3 3 3 3 3 2 2 1
9 11 12 12 12 12 11 12 12 12 12 12 12 12 12 12 12 12 11 11 11 11 10 10 9 8 9 8 8 9 9 8 4 2 2 -0 -0 -0 -0 0 -0 -0 -0
4 5 6 6 7 7 5 8 10 11 10 11 11 11 10 10 11 11 12 11 10 7 2 3 3 1 -1 -0 1 3 3 2 -1 -3 -1 -1 -2 -2 -2 -1 -1 -1 -2
-1 -0 -1 -1 -1 -1 1 3 5 7 6 9 6 4 2 2 5 7 8 8 2 -3 -3 -3 -2 -1 -1 -2 -1 -1 -0 -2 -2 -3 -4 -3 -3 -3 -3 -3 -3 -3 -3